Flag for Comoros Weather past 2 weeks in Moroni, Comoros

Now
79 °F

Scattered clouds.


Feels Like: 82 °F
Forecast: 70 / 83 °F
Wind: 9 mph from South

Location: Hahaya International Airport

Current Time: Sep 2, 2015 at 5:51:49 PM

Latest Report: Sep 2, 2015 at 5:00 PM


Visibility: N/A

Pressure: 29.98 "Hg

Humidity: 84%

Dew point: 73 °F

Location of MoroniLocation

Historic Weather in Moroni — Graph

°F

Moroni temperature yesterday

Maximum temperature yesterday: 82 °F (at 12:00 PM)
Minimum temperature yesterday: 70 °F (at 6:00 AM)
Average temperature yesterday: 79 °F

Past Weeks' High & Low Weather Summary

 TemperatureHumidityPressure
High88 °F (Aug 21, 12:00 PM)100% (Aug 20, 6:00 AM)30.15 "Hg (Aug 20, 6:00 AM)
Low66 °F (Aug 19, 6:00 AM)48% (Aug 27, 10:00 AM)29.95 "Hg (Aug 18, 4:00 PM)
Average79 °F76%30.05 "Hg
* Reported Aug 18 4:00 PM — Sep 2 4:00 PM, Moroni, Weather by CustomWeather, © 2015

Note: Actual official high and low records may vary slightly from our data, if they occured in-between our weather recording intervals... More about our weather records

Advertising

Moroni weather history for previous 24 hours

 ConditionsComfort  
Time TempWeatherWind HumidityBarometerVisibility
4:00 PM
Wed, Sep 2
81 °FPartly sunny.12 mph79%29.98 "HgN/A
3:01 PM81 °FPartly sunny.12 mph79%29.98 "HgN/A
2:00 PM81 °FBroken clouds.13 mph79%30.01 "HgN/A
1:00 PM82 °FBroken clouds.14 mph74%30.04 "HgN/A
12:00 PM82 °FScattered clouds.13 mph70%30.04 "HgN/A
11:00 AM82 °FScattered clouds.12 mph70%30.07 "HgN/A
10:00 AM81 °FPassing clouds.9 mph74%30.07 "HgN/A
9:00 AM81 °FPassing clouds.8 mph70%30.07 "HgN/A
8:00 AM79 °FPassing clouds.3 mph74%30.04 "HgN/A
7:00 AM70 °FPassing clouds.3 mph94%30.04 "HgN/A
6:00 AM70 °FPassing clouds.1 mph94%30.01 "HgN/A
5:00 AM72 °FPassing clouds.5 mph83%30.01 "HgN/A
4:00 AM70 °FPassing clouds.5 mph88%30.01 "HgN/A
3:00 AM72 °FPassing clouds.3 mph83%30.04 "HgN/A
2:00 AM70 °FPassing clouds.1 mph83%30.04 "HgN/A
1:00 AM72 °FPassing clouds.6 mph88%30.04 "HgN/A
6:00 PM
Tue, Sep 1
79 °FPassing clouds.8 mph79%30.04 "HgN/A
5:00 PM81 °FPassing clouds.8 mph74%30.01 "HgN/A
Weather by CustomWeather, © 2015

See weather overviewHow to use our weather pages